This is the latest recevied weather packets stored in our database for station/object W5TUX. If no packets are shown the sender has not sent any weather packets the latest 10 day(s).
| Time | Temp. | Humidity | Pressure | Rain* | Wind** | Luminosity | Snow |
|---|---|---|---|---|---|---|---|
| 1777853791 | 25.56° C | 33% | 1020.1 hPa | 0 mm | - | 20 W/m² | - |
| 1777853487 | 26.11° C | 31% | 1020.4 hPa | 0 mm | - | 20 W/m² | - |
| 1777853184 | 26.11° C | 31% | 1020.5 hPa | 0 mm | - | 20 W/m² | - |
| 1777852882 | 26.11° C | 31% | 1020.3 hPa | 0 mm | - | 20 W/m² | - |
| 1777852580 | 26.11° C | 31% | 1020.5 hPa | 0 mm | - | 24 W/m² | - |
| 1777852276 | 26.67° C | 32% | 1020.4 hPa | 0 mm | - | 34 W/m² | - |
| 1777851974 | 26.67° C | 31% | 1020.5 hPa | 0 mm | - | 33 W/m² | - |
| 1777851672 | 26.67° C | 30% | 1020.3 hPa | 0 mm | - | 69 W/m² | - |
| 1777851369 | 26.67° C | 30% | 1020.5 hPa | 0 mm | - | 42 W/m² | - |
| 1777851064 | 26.67° C | 30% | 1020.5 hPa | 0 mm | - | 25 W/m² | - |
| 1777850761 | 27.22° C | 30% | 1020.6 hPa | 0 mm | - | 26 W/m² | - |
| 1777850459 | 26.67° C | 31% | 1020.5 hPa | 0 mm | - | 26 W/m² | - |
| 1777850157 | 27.22° C | 31% | 1020.8 hPa | 0 mm | - | 27 W/m² | - |
| 1777849853 | 27.22° C | 30% | 1020.9 hPa | 0 mm | - | 27 W/m² | - |
| 1777849550 | 27.22° C | 32% | 1020.6 hPa | 0 mm | - | 45 W/m² | - |
| 1777849247 | 27.22° C | 31% | 1020.7 hPa | 0 mm | - | 28 W/m² | - |
| 1777848944 | 27.22° C | 30% | 1020.8 hPa | 0 mm | - | 49 W/m² | - |
| 1777848638 | 26.67° C | 30% | 1020.6 hPa | 0 mm | - | 29 W/m² | - |
| 1777848337 | 27.22° C | 30% | 1020.8 hPa | 0 mm | - | 31 W/m² | - |
| 1777848034 | 26.67° C | 30% | 1020.8 hPa | 0 mm | - | 30 W/m² | - |
| 1777847732 | 26.67° C | 30% | 1020.9 hPa | 0 mm | - | 34 W/m² | - |
| 1777847427 | 27.22° C | 30% | 1020.8 hPa | 0 mm | - | 47 W/m² | - |
| 1777847125 | 27.22° C | 31% | 1020.9 hPa | 0 mm | - | 58 W/m² | - |
| 1777846823 | 27.22° C | 30% | 1020.9 hPa | 0 mm | - | 35 W/m² | - |
| 1777846521 | 27.22° C | 30% | 1021.1 hPa | 0 mm | - | 97 W/m² | - |
* Rain latest hour (hover to see other rain measurements)
** Current wind speed in m/s (hover to see current wind gust speed)